STARLINK-11304 [DTC] (61209 NORAD) Tracking and Keplerian Element Data

This shows tracking and keplerian element data for the satellite.

Feedback or suggestion? Click here.




ElementValue
Catalog61209
NameSTARLINK-11304 [DTC]
Epoch Orbit464
Epoch Day286.16658426
Epoch Year2024
RAAN188.522
Inclination53.1579
Eccentricity8.83E-05
Argument of Perigee115.3538
Mean Anonmoly244.7574
Mean Motion15.76734178
Decay Rate0.00010969
L11 61209U 24171K 24286.16658426 .00010969 00000+0 70909-4 0 9996
L22 61209 53.1579 188.5220 0000883 115.3538 244.7574 15.76734178 4647



Live tracking and technical data element details for STARLINK-11304 [DTC] (NORAD 61209). STARLINK-11304 [DTC] can be tracked NOW for your location showing map with azimuth and elevation plus other details from your city location.







IsCatalogInMostPopularTable: catalog: 61209, numindb: 25
Update: records affected: 1



GetName: 61209 STARLINK-11304 [DTC]

Hit Count: updated at: Wed, 04 Dec 2024 12:53:14 GMT